Regional Weather Roundup
Issued by NWS Austin/San Antonio, TX

Home | Current Version | Previous Version | Text Only | Print | Product List | Glossary On
Versions: 1 2 3 4 5 6 7 8 9 10 11 12 13 14 15 16 17 18 19 20 21 22 23 24 25 26 27 28 29 30 31 32 33 34 35 36 37 38 39 40 41 42 43 44 45 46 47 48 49 50
000
ASUS44 KEWX 210201
RWREWX
SOUTH TEXAS REGIONAL WEATHER ROUNDUP
NATIONAL WEATHER SERVICE AUSTIN/SAN ANTONIO TX
900 PM CDT TUE AUG 20 2019

NOTE: "FAIR" INDICATED FEW OR NO CLOUDS BELOW 12,000 FEET WITH NO
SIGNIFICANT WEATHER AND/OR OBSTRUCTIONS TO VISIBILITY.

* - THESE STATIONS ARE NOT NWS OR FAA STATIONS...AND ARE NOT SUBJECT
    TO NWS AND FAA QUALITY CONTROL.

TXZ171-172-183>190-210300-
TEXAS HILL COUNTRY AND EDWARDS PLATEAU

CITY           SKY/WX    TMP DP  RH WIND       PRES   REMARKS
JUNCTION       CLEAR     91  63  39 SE8       30.01R HX  92
*LLANO         CLEAR     91  63  38 CALM      30.00R HX  92
BURNET         CLEAR     90  63  40 SE6       30.01R HX  91
*HORSESHOE BAY CLEAR     90  63  40 S3        29.98R HX  90
*KERRVILLE     CLEAR     86  62  43 CALM      30.02R
*FREDERICKSBRG CLEAR     87  59  39 CALM      30.02R
*ROCKSPRINGS   PTCLDY    86  59  39 SE8       30.08S
*BOERNE        CLEAR     84  61  45 CALM      30.02R
*CASTROVILLE   CLEAR     91  54  28 SE3       29.97S
HONDO          CLEAR     89  60  37 SE8       29.96R
*UVALDE        CLEAR     88  59  36 E6        29.96R
DEL RIO        CLEAR     95  60  31 E12       29.91R HX  95
LAUGHLIN AFB   CLEAR     90  61  37 SE8       29.93R HX  90
SPOFFORD       NOT AVBL
*EAGLE PASS    CLEAR     93  57  29 E7        29.92R HX  92
CARRIZO SPRGS  CLEAR     93  59  31 SE6       29.90S HX  92
$$

TXZ173-191>194-202-209-217>225-228-210300-
CENTRAL AND SOUTH CENTRAL TEXAS

CITY           SKY/WX    TMP DP  RH WIND       PRES   REMARKS
GEORGETOWN     CLEAR     91  69  48 S13       29.99R HX  96
AUSTIN/BERGSTM PTCLDY    89  70  53 SE10      29.97R HX  94
AUSTIN/MABRY   CLEAR     90  66  45 SE8       29.99R HX  92
*AUSTIN/EXEC   CLEAR     86  68  54 S10G17    29.99R
*LAGO VISTA    CLEAR     87  68  53 SE8       30.01R HX  90
SAN MARCOS     CLEAR     87  71  58 SE12      29.99R HX  93
NEW BRAUNFELS  CLEAR     89  68  49 SE16      29.96R HX  93
RANDOLPH AFB   CLEAR     89  67  49 E10       29.97R HX  92
SEGUIN         CLEAR     87  64  45 SE13      30.01R
KELLY FIELD    CLEAR     93  59  32 SE12      29.95R HX  92
SAN ANTONIO    PTCLDY    89  60  37 SE9       29.97R
STINSON FIELD  CLEAR     90  62  39 SE9       29.94R HX  90
PLEASANTON     CLEAR     89  65  44 SE15G25   29.96R HX  91
*LA GRANGE     CLEAR     86  75  69 SE5       29.96S HX  95
*GIDDINGS      CLEAR     89  72  56 S7        29.99S HX  96
*GONZALES      CLEAR     89  71  55 SE8       29.97R HX  94
$$

TXZ163>164-176>182-195>201-210>213-226-227-235-210300-
SOUTHEAST TEXAS

CITY           SKY/WX    TMP DP  RH WIND       PRES   REMARKS
COLLEGE STN    CLEAR     85  73  67 S7        29.97F HX  91
*BRYAN         CLEAR     86  73  63 S8        29.99R HX  93
*CALDWELL      CLEAR     86  71  61 S8        29.98S HX  91
*CROCKETT      CLEAR     82  72  69 CALM      30.01S
*BRENHAM       CLEAR     86  71  60 S6        29.99S HX  91
HUNTSVILLE     CLEAR     80  74  81 VRB3      29.99S
CONROE         CLEAR     81  72  74 SE5       29.99R
HOUSTON BUSH   MOCLDY    85  72  65 S5        29.98R HX  91
HOUSTON HOBBY  MOCLDY    83  75  77 S7        29.98S HX  90
*HOUSTON SW AP FAIR      81  76  86 S3        29.99F
PEARLAND       FAIR      83  75  77 S5        29.99F HX  90
HOUSTON HOOKS  FAIR      84  70  62 CALM      29.98S
ELLINGTON FLD  MOCLDY    82  73  74 S6        29.98F
SUGAR LAND     FAIR      82  77  84 S8        29.98S HX  90
*HOUSTON EXEC  FAIR      84  73  70 S7        30.00S HX  91
*CLEVELAND MUN FAIR      79  78  96 CALM      30.00S
*WHARTON       CLEAR     81  72  74 SE6       29.99F
*COLUMBUS      FAIR      84  71  64 SE5       29.99F
*EAGLE LAKE    CLEAR     83  76  78 S3        29.98F HX  91
$$

TXZ214>216-236>238-210300-
THE UPPER TEXAS COAST

CITY           SKY/WX    TMP DP  RH WIND       PRES   REMARKS
*ORANGE        FAIR      79  79 100 CALM      30.01S
PORT ARTHUR    FAIR      80  76  87 CALM      30.00R
GALVESTON      FAIR      85  78  80 S9        30.00S HX  96
ANGLETON       FAIR      81  76  84 CALM      29.99F
*BAY CITY      CLEAR     83  79  88 SE5       29.99S HX  93
PALACIOS       CLEAR     86  75  69 SE9       29.99S HX  95
$$

TXZ229>234-239>247-210300-
TEXAS COASTAL BEND AND RIO GRANDE PLAINS

CITY           SKY/WX    TMP DP  RH WIND       PRES   REMARKS
VICTORIA       CLEAR     85  70  60 SE10      29.99S
*BEEVILLE      NOT AVBL
ROCKPORT       CLEAR     84  75  74 SE15      29.98R HX  92
*PORT ARANSAS  CLEAR     85  79  80 SE10      30.00R HX  98
*PORT LAVACA   CLEAR     84  76  76 SE5       29.99F HX  93
*INGLESIDE     NOT AVBL
CORPUS CHRISTI PTCLDY    85  75  72 SE12G21   29.97R HX  93
CORPUS NAS     PTCLDY    85  78  80 SE15      29.97S HX  96
*ROBSTOWN      CLEAR     85  74  68 SE13      29.98R HX  92
ALICE          CLEAR     86  72  62 SE14      29.97R HX  92
KINGSVILLE NAS PTCLDY    85  76  74 SE9       29.97R HX  94
COTULLA        CLEAR     93  67  42 SE17      29.93R HX  96
LAREDO         CLEAR     93  69  45 SE22G30   29.91R HX  98
$$

TXZ248>255-210300-
DEEP SOUTH TEXAS

CITY           SKY/WX    TMP DP  RH WIND       PRES   REMARKS
BROWNSVILLE    FAIR      86  78  77 SE10      29.96R HX  98
PORT ISABEL    FAIR      85  76  74 SE14      29.97R HX  94
HARLINGEN      CLEAR     85  75  72 SE13      29.96R HX  93
*HEBBRONVILLE  CLEAR     87  68  52 SE15G25   29.98R HX  91
MCALLEN        CLEAR     89  70  53 SE17      29.96R HX  94
*WESLACO       CLOUDY    86  72  62 SE8G16    29.96R HX  92
FALFURRIAS     CLEAR     88  72  58 SE8       29.96S HX  94
EDINBURG       FAIR      89  71  56 SE16      29.97R HX  94
*ZAPATA        FAIR      92  66  42 SE17G23   29.93R HX  95
$$

TXZ213>215-236>238-242>244-246-247-251-254-255-210300-
CMAN STATIONS

STATION/POSITION TIME  TEMP    WIND        PRES    WAVE
                       AIR SEA DIR/SP/G            HT/PER
                 (UTC) (F)     (DEG/KT/KT) (MB)    (FT/S)
SABINE PASS      0124   82 89  200/  5/  6 1017.3
NORTH JETTY/GLS  0124   85 88  170/ 10/ 12 1014.5
EAGLE POINT      0124   85 88  180/  9/ 10 1014.6
MORGANS POINT    0124   85 89  190/  6/  9 1015.1
PORT O`CONNOR    0124   85 88  150/ 12/ 14 1015.1
PORT ARANSAS     0100   85 87  120/ 12/ 14 1015.2
MALAQUITE BEACH  0124   84 86  100/ 10/ 11 1014.7
BAFFIN BAY       0124   84 91   90/ 10/ 13 1014.9
PORT ISABEL      0124   84 86  120/ 10/ 13 1015.2
$$



USA.gov is the U.S. government's official web portal to all federal, state and local government web resources and services.